This demonstration page uses our WeatherBlox Daily Observations layout. Learn more.

38.89511, -77.03637

Hourly Observations for March 23, 2015

Temp ( °F °C ) Dew Point ( °F °C ) Humidity (%) Winds ( mph kmh ) Pressure ( in mb ) Visibility ( mi km ) Precip ( " mm )
12:52 am 00:52 Mostly Cloudy 45 7.2 17 -8.3 33 33 N 10 17 30.16 1022 10 16.0934 0 0
1:52 am 01:52 Mostly Cloudy 45 7.2 15 -9.4 30 30 N 14 22 30.17 1022 10 16.0934 0 0
2:52 am 02:52 Mostly Cloudy 43 6.1 16 -8.9 34 34 NNE 10 17 30.19 1022 10 16.0934 0 0
3:52 am 03:52 Mostly Cloudy 42 5.6 14 -10 32 32 NNE 15 24 30.19 1023 10 16.0934 0 0
4:52 am 04:52 Mostly Cloudy 40 4.4 15 -9.4 36 36 NNE 12 19 30.19 1023 10 16.0934 0 0
5:52 am 05:52 Mostly Cloudy 38 3.3 13 -10.6 36 36 NNE 15 24 30.22 1023 10 16.0934 0 0
6:52 am 06:52 Mostly Cloudy 37 2.8 12 -11.1 36 36 N 14 22 30.25 1024 10 16.0934 0 0
7:52 am 07:52 Mostly Cloudy 36 2.2 12 -11.1 37 37 NNE 12 19 30.27 1025 10 16.0934 0 0
8:52 am 08:52 Mostly Cloudy 36 2.2 15 -9.4 42 42 NE 13 20 30.29 1026 10 16.0934 0 0
9:52 am 09:52 Mostly Cloudy 37 2.8 15 -9.4 41 41 ENE 6 9 30.3 1026 10 16.0934 0 0
10:52 am 10:52 Partly Cloudy 40 4.4 14 -10 35 35 NNE 6 9 30.3 1026 10 16.0934 0 0
11:52 am 11:52 Partly Cloudy 41 5 13 -10.6 32 32 E 5 7 30.29 1026 10 16.0934 0 0
12:52 pm 12:52 Mostly Sunny 45 7 18 -8 34 34 ENE 7 11 30.27 1025 10 16.0934 0 0
1:52 pm 13:52 Partly Cloudy 46 7.8 14 -10 27 27 ENE 5 7 30.24 1024 10 16.0934 0 0
2:52 pm 14:52 Mostly Cloudy 48 8.9 14 -10 25 25 NNE 7 11 30.22 1023 10 16.0934 0 0
3:52 pm 15:52 Partly Cloudy 49 9.4 15 -9.4 26 26 ENE 7 11 30.19 1022 10 16.0934 0 0
4:52 pm 16:52 Mostly Sunny 50 10 13 -10.6 22 22 ENE 5 7 30.17 1022 10 16.0934 0 0
5:52 pm 17:52 Mostly Sunny 50 10 17 -8.3 27 27 NE 5 7 30.17 1022 10 16.0934 0 0
6:52 pm 18:52 Partly Cloudy 49 9.4 16 -8.9 27 27 VRB 5 7 30.19 1022 10 16.0934 0 0
7:52 pm 19:52 Partly Cloudy 44 6.7 21 -6.1 40 40 ESE 12 19 30.21 1023 10 16.0934 0 0
8:52 pm 20:52 Mostly Cloudy 41 5 17 -8.3 38 38 ESE 6 9 30.24 1024 10 16.0934 0 0
9:52 pm 21:52 Cloudy 42 5.6 18 -7.8 38 38 ESE 3 6 30.25 1024 10 16.0934 0 0
10:52 pm 22:52 Cloudy 42 5.6 16 -8.9 35 35 ESE 3 6 30.24 1024 10 16.0934 0 0
11:52 pm 23:52 Cloudy 42 5.6 19 -7.2 40 40 ESE 6 9 30.25 1025 10 16.0934 0 0

Powered by AerisWeather